START_TIME,STEP,MOV.,H8,t_acc.,H43,t_acc.,M25,t_acc.,H9,t_acc.
1979-03-01 03:00:18.950 ,5,0,0.,12.0,0.,12.0,0.,12.0,0.,12.0
1979-03-01 03:00:30.950 ,5,0,0.,12.0,0.,12.0,0.,12.0,0.,12.0
1979-03-01 03:00:42.950 ,6,0,0.,12.0,0.,12.0,0.,12.0,0.,12.0
1979-03-01 03:00:54.950 ,6,0,0.,12.0,0.,12.0,0.,12.0,0.,12.0
1979-03-01 03:01:06.950 ,7,0,0.,12.0,0.,12.0,0.,12.0,0.,12.0
1979-03-01 03:01:18.950 ,7,0,0.,12.0,0.,12.0,0.,12.0,0.,12.0
1979-03-01 03:01:30.950 ,7,0,0.,12.0,0.,12.0,0.,12.0,0.,12.0
1979-03-01 03:01:42.950 ,7,0,0.,12.0,0.,12.0,0.,12.0,0.,12.0
1979-03-01 03:01:54.950 ,6,0,0.,12.0,0.,12.0,0.,12.0,0.,12.0
1979-03-01 03:02:06.950 ,6,0,0.,12.0,0.,12.0,0.,12.0,0.,12.0
1979-03-01 03:02:18.950 ,5,0,0.,12.0,0.,12.0,0.,12.0,0.,12.0
1979-03-01 03:02:30.950 ,5,0,0.,12.0,0.,12.0,0.,12.0,0.,12.0
1979-03-01 03:02:42.950 ,4,0,0.,12.0,0.,12.0,0.,12.0,0.,12.0
1979-03-01 03:02:54.950 ,4,0,0.,12.0,0.,12.0,0.,12.0,0.,12.0
1979-03-01 03:03:06.950 ,3,0,0.,12.0,0.,12.0,0.,12.0,0.,12.0
1979-03-01 03:03:18.950 ,3,0,0.,12.0,0.,12.0,0.,12.0,0.,12.0
1979-03-01 03:03:30.950 ,2,0,0.,12.0,0.,12.0,0.,12.0,0.,12.0
1979-03-01 03:03:42.950 ,2,0,0.,12.0,0.,12.0,0.,12.0,0.,12.0
1979-03-01 03:03:54.950 ,1,0,0.,12.0,0.,12.0,0.,12.0,0.,12.0
1979-03-01 03:04:06.950 ,1,0,0.,12.0,0.,12.0,0.,12.0,0.,12.0
1979-03-01 03:04:18.950 ,0,0,0.,12.0,0.,12.0,0.,12.0,0.,12.0
1979-03-01 03:04:30.950 ,0,0,0.,12.0,0.,12.0,0.,12.0,0.,12.0
1979-03-01 03:04:42.950 ,0,0,0.,12.0,0.,12.0,0.,12.0,0.,12.0
1979-03-01 03:04:54.950 ,0,0,0.,12.0,0.,12.0,0.,12.0,0.,12.0
1979-03-01 03:05:06.950 ,1,0,0.,12.0,0.,12.0,0.,12.0,0.,12.0
1979-03-01 03:05:18.950 ,1,0,0.,12.0,0.,12.0,0.,12.0,0.,12.0
1979-03-01 03:05:30.950 ,2,0,1.,12.0,0.,12.0,0.,12.0,0.,12.0
1979-03-01 03:05:42.950 ,2,0,0.,12.0,0.,12.0,0.,12.0,0.,12.0
1979-03-01 03:05:54.950 ,3,0,0.,12.0,0.,12.0,0.,12.0,0.,12.0
1979-03-01 03:06:06.950 ,3,0,0.,12.0,0.,12.0,0.,12.0,0.,12.0
1979-03-01 03:06:18.950 ,4,0,0.,12.0,0.,12.0,0.,12.0,0.,12.0
1979-03-01 03:06:30.950 ,4,0,0.,12.0,0.,12.0,0.,12.0,0.,12.0
1979-03-01 03:06:42.950 ,5,0,0.,12.0,0.,12.0,0.,12.0,0.,12.0
1979-03-01 03:06:54.950 ,5,0,0.,12.0,0.,12.0,0.,12.0,0.,12.0
1979-03-01 03:07:06.950 ,6,0,0.,12.0,0.,12.0,0.,12.0,0.,12.0
1979-03-01 03:07:18.950 ,6,0,0.,12.0,0.,12.0,0.,12.0,0.,12.0
1979-03-01 03:07:30.950 ,7,0,0.,12.0,0.,12.0,0.,12.0,0.,12.0
1979-03-01 03:07:42.950 ,7,0,0.,12.0,0.,12.0,0.,12.0,0.,12.0
1979-03-01 03:07:54.950 ,7,0,0.,12.0,0.,12.0,0.,12.0,0.,12.0
1979-03-01 03:08:06.950 ,7,0,0.,12.0,0.,12.0,0.,12.0,0.,12.0
1979-03-01 03:08:18.950 ,0,0,0.,12.0,0.,12.0,0.,12.0,0.,12.0
1979-03-01 03:08:30.950 ,0,0,0.,12.0,0.,12.0,0.,12.0,0.,12.0
1979-03-01 03:08:42.950 ,0,0,0.,12.0,0.,12.0,0.,12.0,0.,12.0
1979-03-01 03:08:54.950 ,0,0,0.,12.0,0.,12.0,0.,12.0,0.,12.0
1979-03-01 03:09:06.950 ,0,0,0.,12.0,0.,12.0,0.,12.0,0.,12.0
1979-03-01 03:09:18.950 ,0,0,0.,12.0,0.,12.0,0.,12.0,0.,12.0
1979-03-01 03:09:30.950 ,3,0,,0,,0,,0,,0
1979-03-01 03:09:42.950 ,3,0,0.,12.0,0.,12.0,0.,12.0,0.,12.0
1979-03-01 03:09:54.950 ,2,0,0.,12.0,0.,12.0,0.,12.0,0.,12.0
1979-03-01 03:10:06.950 ,2,0,0.,12.0,0.,12.0,0.,12.0,0.,12.0
1979-03-01 03:10:18.950 ,1,0,,0,,0,,0,,0
1979-03-01 03:10:30.950 ,1,0,0.,12.0,0.,12.0,0.,12.0,0.,12.0
1979-03-01 03:10:42.950 ,0,0,0.,12.0,0.,12.0,0.,12.0,0.,12.0
1979-03-01 03:10:54.950 ,0,0,0.,12.0,0.,12.0,0.,12.0,0.,12.0
1979-03-01 03:11:06.950 ,0,0,0.,12.0,0.,12.0,0.,12.0,0.,12.0
1979-03-01 03:11:18.950 ,0,0,0.,12.0,0.,12.0,0.,12.0,0.,12.0
1979-03-01 03:11:30.950 ,1,0,0.,12.0,0.,12.0,0.,12.0,0.,12.0
1979-03-01 03:11:42.950 ,1,0,0.,12.0,0.,12.0,0.,12.0,0.,12.0
1979-03-01 03:11:54.950 ,2,0,0.,12.0,0.,12.0,0.,12.0,0.,12.0
1979-03-01 03:12:06.950 ,2,0,0.,12.0,0.,12.0,0.,12.0,0.,12.0
1979-03-01 03:12:18.950 ,3,0,0.,12.0,0.,12.0,0.,12.0,0.,12.0
1979-03-01 03:12:30.950 ,3,0,0.,12.0,0.,12.0,0.,12.0,0.,12.0
1979-03-01 03:12:42.950 ,4,0,0.,12.0,0.,12.0,0.,12.0,0.,12.0
1979-03-01 03:12:54.950 ,4,0,0.,12.0,0.,12.0,0.,12.0,0.,12.0
1979-03-01 03:13:06.950 ,5,1,0.,12.0,0.,12.0,0.,12.0,0.,12.0
1979-03-01 03:13:18.950 ,5,1,,0,,0,,0,,0
1979-03-01 03:13:30.950 ,6,0,0.,12.0,0.,12.0,0.,12.0,0.,12.0
1979-03-01 03:13:42.950 ,6,0,0.,12.0,0.,12.0,0.,12.0,0.,12.0
1979-03-01 03:13:54.950 ,7,0,0.,12.0,0.,12.0,0.,12.0,0.,12.0
1979-03-01 03:14:06.950 ,7,0,0.,12.0,0.,12.0,0.,12.0,0.,12.0
1979-03-01 03:14:18.950 ,7,0,0.,12.0,0.,12.0,0.,12.0,0.,12.0
1979-03-01 03:14:30.950 ,7,0,0.,12.0,0.,12.0,0.,12.0,0.,12.0
1979-03-01 03:14:42.950 ,6,0,0.,12.0,0.,12.0,0.,12.0,0.,12.0
1979-03-01 03:14:54.950 ,6,0,0.,12.0,0.,12.0,0.,12.0,0.,12.0
1979-03-01 03:15:06.950 ,5,0,0.,12.0,0.,12.0,0.,12.0,0.,12.0
1979-03-01 03:15:18.950 ,5,0,0.,12.0,0.,12.0,0.,12.0,0.,12.0
1979-03-01 03:15:30.950 ,4,0,0.,12.0,0.,12.0,0.,12.0,0.,12.0
1979-03-01 03:15:42.950 ,4,0,0.,12.0,0.,12.0,0.,12.0,0.,12.0
1979-03-01 03:15:54.950 ,3,0,0.,12.0,0.,12.0,0.,12.0,0.,12.0
1979-03-01 03:16:06.950 ,3,0,0.,12.0,0.,12.0,0.,12.0,0.,12.0
1979-03-01 03:16:18.950 ,2,0,0.,12.0,0.,12.0,0.,12.0,0.,12.0
1979-03-01 03:16:30.950 ,2,0,0.,12.0,0.,12.0,0.,12.0,0.,12.0
1979-03-01 03:16:42.950 ,1,0,0.,12.0,0.,12.0,0.,12.0,0.,12.0
1979-03-01 03:16:54.950 ,1,0,0.,12.0,0.,12.0,0.,12.0,0.,12.0
1979-03-01 03:17:06.950 ,0,0,0.,12.0,0.,12.0,0.,12.0,0.,12.0
1979-03-01 03:17:18.950 ,0,0,0.,12.0,0.,12.0,0.,12.0,0.,12.0
1979-03-01 03:17:30.950 ,0,0,0.,12.0,0.,12.0,0.,12.0,0.,12.0
1979-03-01 03:17:42.950 ,0,0,0.,12.0,0.,12.0,0.,12.0,0.,12.0
1979-03-01 03:17:54.950 ,1,0,0.,12.0,0.,12.0,0.,12.0,0.,12.0
1979-03-01 03:18:06.950 ,1,0,0.,12.0,0.,12.0,0.,12.0,0.,12.0
1979-03-01 03:18:18.950 ,2,0,0.,12.0,0.,12.0,0.,12.0,0.,12.0
1979-03-01 03:18:30.950 ,2,0,0.,12.0,0.,12.0,0.,12.0,0.,12.0
1979-03-01 03:18:42.950 ,0,0,0.,12.0,0.,12.0,0.,12.0,0.,12.0
1979-03-01 03:18:54.950 ,0,0,0.,12.0,0.,12.0,0.,12.0,0.,12.0
1979-03-01 03:19:06.950 ,0,0,0.,12.0,0.,12.0,0.,12.0,0.,12.0
1979-03-01 03:19:18.950 ,0,0,0.,12.0,0.,12.0,0.,12.0,0.,12.0
1979-03-01 03:19:30.950 ,0,0,0.,12.0,0.,12.0,0.,12.0,0.,12.0
1979-03-01 03:19:42.950 ,0,0,0.,12.0,0.,12.0,0.,12.0,0.,12.0
1979-03-01 03:19:54.950 ,6,0,0.,12.0,0.,12.0,0.,12.0,0.,12.0
1979-03-01 03:20:06.950 ,6,0,0.,12.0,0.,12.0,0.,12.0,0.,12.0
1979-03-01 03:20:18.950 ,7,0,0.,12.0,0.,12.0,0.,12.0,0.,12.0
1979-03-01 03:20:30.950 ,7,0,0.,12.0,0.,12.0,0.,12.0,0.,12.0
1979-03-01 03:20:42.950 ,7,0,0.,12.0,0.,12.0,0.,12.0,0.,12.0
1979-03-01 03:20:54.950 ,7,0,0.,12.0,0.,12.0,0.,12.0,0.,12.0
1979-03-01 03:21:06.950 ,6,0,0.,12.0,0.,12.0,0.,12.0,0.,12.0
1979-03-01 03:21:18.950 ,6,0,0.,12.0,0.,12.0,0.,12.0,0.,12.0
1979-03-01 03:21:30.950 ,0,0,0.,12.0,0.,12.0,0.,12.0,0.,12.0
1979-03-01 03:21:42.950 ,0,0,0.,12.0,0.,12.0,0.,12.0,0.,12.0
1979-03-01 03:21:54.950 ,4,0,0.,12.0,0.,12.0,0.,12.0,0.,12.0
1979-03-01 03:22:06.950 ,4,0,0.,12.0,0.,12.0,0.,12.0,0.,12.0
1979-03-01 03:22:18.950 ,3,0,0.,12.0,0.,12.0,0.,12.0,0.,12.0
1979-03-01 03:22:30.950 ,3,0,0.,12.0,0.,12.0,0.,12.0,0.,12.0
1979-03-01 03:22:42.950 ,2,0,0.,12.0,0.,12.0,0.,12.0,0.,12.0
1979-03-01 03:22:54.950 ,2,0,0.,12.0,0.,12.0,0.,12.0,0.,12.0
1979-03-01 03:23:06.950 ,1,0,0.,12.0,0.,12.0,0.,12.0,0.,12.0
1979-03-01 03:23:18.950 ,1,0,0.,12.0,0.,12.0,0.,12.0,0.,12.0
1979-03-01 03:23:30.950 ,0,0,0.,12.0,0.,12.0,0.,12.0,0.,12.0
1979-03-01 03:23:42.950 ,0,0,0.,12.0,0.,12.0,0.,12.0,0.,12.0
1979-03-01 03:23:54.950 ,0,0,0.,12.0,0.,12.0,0.,12.0,0.,12.0
1979-03-01 03:24:06.950 ,0,0,0.,12.0,0.,12.0,0.,12.0,0.,12.0
1979-03-01 03:24:18.950 ,1,0,0.,12.0,0.,12.0,0.,12.0,0.,12.0
1979-03-01 03:24:30.950 ,1,0,0.,12.0,0.,12.0,0.,12.0,0.,12.0
1979-03-01 03:24:42.950 ,2,0,1.,12.0,0.,12.0,0.,12.0,0.,12.0
1979-03-01 03:24:54.950 ,2,0,0.,12.0,0.,12.0,0.,12.0,0.,12.0
1979-03-01 03:25:06.950 ,3,0,0.,12.0,0.,12.0,0.,12.0,0.,12.0
1979-03-01 03:25:18.950 ,3,0,0.,12.0,0.,12.0,0.,12.0,0.,12.0
1979-03-01 03:25:30.950 ,4,0,0.,12.0,0.,12.0,0.,12.0,0.,12.0
1979-03-01 03:25:42.950 ,4,0,0.,12.0,0.,12.0,0.,12.0,0.,12.0
1979-03-01 03:25:54.950 ,5,0,0.,12.0,0.,12.0,0.,12.0,0.,12.0
1979-03-01 03:26:06.950 ,5,0,0.,12.0,0.,12.0,0.,12.0,0.,12.0
1979-03-01 03:26:18.950 ,6,0,0.,12.0,0.,12.0,0.,12.0,0.,12.0
1979-03-01 03:26:30.950 ,6,0,0.,12.0,0.,12.0,0.,12.0,0.,12.0
1979-03-01 03:26:42.950 ,7,1,0.,12.0,0.,12.0,0.,12.0,0.,12.0
1979-03-01 03:26:54.950 ,7,1,,0,,0,,0,,0
1979-03-01 03:27:06.950 ,7,0,0.,12.0,0.,12.0,0.,12.0,0.,12.0
1979-03-01 03:27:18.950 ,7,0,0.,12.0,0.,12.0,0.,12.0,0.,12.0
1979-03-01 03:27:30.950 ,0,0,,0,,0,,0,,0
1979-03-01 03:27:42.950 ,0,0,,0,,0,,0,,0
1979-03-01 03:27:36.350 ,6,0,0.,12.0,0.,12.0,0.,12.0,0.,12.0
1979-03-01 03:27:48.350 ,6,0,0.,12.0,0.,12.0,0.,12.0,0.,12.0
1979-03-01 03:27:54.950 ,5,0,0.,12.0,0.,12.0,0.,12.0,0.,12.0
1979-03-01 03:28:06.950 ,5,0,0.,12.0,0.,12.0,0.,12.0,0.,12.0
1979-03-01 03:28:18.950 ,4,0,0.,12.0,0.,12.0,0.,12.0,0.,12.0
1979-03-01 03:28:30.950 ,4,0,0.,12.0,0.,12.0,0.,12.0,0.,12.0
1979-03-01 03:28:42.950 ,3,0,0.,12.0,0.,12.0,0.,12.0,0.,12.0
1979-03-01 03:28:54.950 ,3,0,0.,12.0,0.,12.0,0.,12.0,0.,12.0
1979-03-01 03:29:06.950 ,2,0,0.,12.0,0.,12.0,0.,12.0,0.,12.0
1979-03-01 03:29:18.950 ,2,0,0.,12.0,0.,12.0,0.,12.0,0.,12.0
1979-03-01 03:29:30.950 ,1,0,0.,12.0,0.,12.0,0.,12.0,0.,12.0
1979-03-01 03:29:42.950 ,1,0,0.,12.0,0.,12.0,0.,12.0,0.,12.0
1979-03-01 03:29:54.950 ,0,0,0.,12.0,0.,12.0,0.,12.0,0.,12.0
1979-03-01 03:30:06.950 ,0,0,0.,12.0,0.,12.0,0.,12.0,0.,12.0
1979-03-01 03:30:18.950 ,0,0,0.,12.0,0.,12.0,0.,12.0,0.,12.0
1979-03-01 03:30:30.950 ,0,0,0.,12.0,0.,12.0,0.,12.0,0.,12.0
1979-03-01 03:30:42.950 ,1,0,0.,12.0,0.,12.0,0.,12.0,0.,12.0
1979-03-01 03:30:54.950 ,1,0,0.,12.0,0.,12.0,0.,12.0,0.,12.0
1979-03-01 03:31:06.950 ,2,0,0.,12.0,0.,12.0,0.,12.0,0.,12.0
1979-03-01 03:31:18.950 ,2,0,0.,12.0,0.,12.0,0.,12.0,0.,12.0
1979-03-01 03:31:30.950 ,3,0,0.,12.0,0.,12.0,0.,12.0,0.,12.0
1979-03-01 03:31:42.950 ,3,0,0.,12.0,0.,12.0,0.,12.0,0.,12.0
1979-03-01 03:31:54.950 ,4,0,0.,12.0,0.,12.0,0.,12.0,0.,12.0
1979-03-01 03:32:06.950 ,4,0,0.,12.0,0.,12.0,1.,12.0,0.,12.0
1979-03-01 03:32:18.950 ,5,0,0.,12.0,0.,12.0,0.,12.0,0.,12.0
1979-03-01 03:32:30.950 ,5,0,0.,12.0,0.,12.0,0.,12.0,0.,12.0
1979-03-01 03:32:42.950 ,6,0,0.,12.0,0.,12.0,0.,12.0,0.,12.0
1979-03-01 03:32:54.950 ,6,0,0.,12.0,0.,12.0,0.,12.0,0.,12.0
1979-03-01 03:33:06.950 ,7,0,0.,12.0,0.,12.0,0.,12.0,0.,12.0
1979-03-01 03:33:18.950 ,7,0,0.,12.0,0.,12.0,0.,12.0,0.,12.0
1979-03-01 03:33:30.950 ,7,0,0.,12.0,0.,12.0,0.,12.0,0.,12.0
1979-03-01 03:33:42.950 ,7,0,0.,12.0,0.,12.0,0.,12.0,0.,12.0
1979-03-01 03:33:54.950 ,6,0,0.,12.0,0.,12.0,0.,12.0,0.,12.0
1979-03-01 03:34:06.950 ,6,0,0.,12.0,0.,12.0,0.,12.0,0.,12.0
1979-03-01 03:34:18.950 ,5,0,0.,12.0,0.,12.0,0.,12.0,0.,12.0
1979-03-01 03:34:30.950 ,5,0,0.,12.0,0.,12.0,0.,12.0,0.,12.0
1979-03-01 03:34:42.950 ,4,0,0.,12.0,0.,12.0,0.,12.0,0.,12.0
1979-03-01 03:34:54.950 ,4,0,1.,12.0,0.,12.0,0.,12.0,0.,12.0
1979-03-01 03:35:06.950 ,3,0,0.,12.0,0.,12.0,0.,12.0,0.,12.0
1979-03-01 03:35:18.950 ,3,0,0.,12.0,0.,12.0,0.,12.0,0.,12.0
1979-03-01 03:35:30.950 ,2,0,0.,12.0,0.,12.0,0.,12.0,0.,12.0
1979-03-01 03:35:42.950 ,2,0,0.,12.0,0.,12.0,0.,12.0,0.,12.0
1979-03-01 03:35:54.950 ,1,0,0.,12.0,0.,12.0,0.,12.0,0.,12.0
1979-03-01 03:36:06.950 ,1,0,0.,12.0,0.,12.0,0.,12.0,0.,12.0
1979-03-01 03:36:18.950 ,0,0,0.,12.0,0.,12.0,0.,12.0,0.,12.0
1979-03-01 03:36:30.950 ,0,0,0.,12.0,0.,12.0,0.,12.0,0.,12.0
1979-03-01 03:36:42.950 ,0,0,0.,12.0,0.,12.0,0.,12.0,0.,12.0
1979-03-01 03:36:54.950 ,0,0,0.,12.0,0.,12.0,0.,12.0,0.,12.0
1979-03-01 03:37:06.950 ,1,0,0.,12.0,0.,12.0,0.,12.0,0.,12.0
1979-03-01 03:37:18.950 ,1,0,0.,12.0,0.,12.0,0.,12.0,0.,12.0
1979-03-01 03:37:30.950 ,2,0,0.,12.0,0.,12.0,0.,12.0,0.,12.0
1979-03-01 03:37:42.950 ,2,0,0.,12.0,0.,12.0,0.,12.0,0.,12.0
1979-03-01 03:37:54.950 ,3,0,0.,12.0,0.,12.0,0.,12.0,0.,12.0
1979-03-01 03:38:06.950 ,3,0,0.,12.0,0.,12.0,0.,12.0,0.,12.0
1979-03-01 03:38:18.950 ,4,0,0.,12.0,0.,12.0,0.,12.0,0.,12.0
1979-03-01 03:38:30.950 ,4,0,0.,12.0,0.,12.0,0.,12.0,0.,12.0
1979-03-01 03:38:42.950 ,5,0,0.,12.0,0.,12.0,0.,12.0,0.,12.0
1979-03-01 03:38:54.950 ,5,0,0.,12.0,0.,12.0,0.,12.0,0.,12.0
1979-03-01 03:39:06.950 ,6,0,0.,12.0,0.,12.0,0.,12.0,0.,12.0
1979-03-01 03:39:18.950 ,6,0,0.,12.0,0.,12.0,0.,12.0,0.,12.0
1979-03-01 03:39:30.950 ,7,0,0.,12.0,0.,12.0,0.,12.0,0.,12.0
1979-03-01 03:39:42.950 ,7,0,0.,12.0,0.,12.0,0.,12.0,0.,12.0
1979-03-01 03:39:54.950 ,7,0,0.,12.0,0.,12.0,0.,12.0,0.,12.0
1979-03-01 03:40:06.950 ,7,0,0.,12.0,0.,12.0,0.,12.0,0.,12.0
1979-03-01 03:40:18.950 ,6,0,0.,12.0,0.,12.0,0.,12.0,0.,12.0
1979-03-01 03:40:30.950 ,6,0,0.,12.0,0.,12.0,0.,12.0,0.,12.0
1979-03-01 03:40:42.950 ,5,0,0.,12.0,0.,12.0,0.,12.0,0.,12.0
1979-03-01 03:40:54.950 ,5,0,0.,12.0,0.,12.0,0.,12.0,0.,12.0
1979-03-01 03:41:06.950 ,4,0,0.,12.0,0.,12.0,0.,12.0,0.,12.0
1979-03-01 03:41:18.950 ,4,0,0.,12.0,0.,12.0,0.,12.0,0.,12.0
1979-03-01 03:41:30.950 ,3,0,0.,12.0,0.,12.0,0.,12.0,0.,12.0
1979-03-01 03:41:42.950 ,3,0,0.,12.0,0.,12.0,0.,12.0,0.,12.0
1979-03-01 03:41:54.950 ,2,0,0.,12.0,0.,12.0,0.,12.0,0.,12.0
1979-03-01 03:42:06.950 ,2,0,0.,12.0,0.,12.0,0.,12.0,0.,12.0
1979-03-01 03:42:18.950 ,1,0,0.,12.0,0.,12.0,0.,12.0,0.,12.0
1979-03-01 03:42:30.950 ,1,0,0.,12.0,0.,12.0,0.,12.0,0.,12.0
1979-03-01 03:42:42.950 ,0,0,0.,12.0,0.,12.0,0.,12.0,0.,12.0
1979-03-01 03:42:54.950 ,0,0,0.,12.0,0.,12.0,0.,12.0,0.,12.0
1979-03-01 03:43:54.950 ,0,0,0.,12.0,0.,12.0,0.,12.0,0.,12.0
1979-03-01 03:44:06.950 ,0,0,0.,12.0,0.,12.0,0.,12.0,0.,12.0
1979-03-01 03:44:18.950 ,3,0,0.,12.0,0.,12.0,0.,12.0,0.,12.0
1979-03-01 03:44:30.950 ,3,0,0.,12.0,0.,12.0,0.,12.0,0.,12.0
1979-03-01 03:44:42.950 ,4,0,0.,12.0,0.,12.0,0.,12.0,0.,12.0
1979-03-01 03:44:54.950 ,4,0,0.,12.0,0.,12.0,0.,12.0,0.,12.0
1979-03-01 03:45:06.950 ,5,0,0.,12.0,0.,12.0,0.,12.0,0.,12.0
1979-03-01 03:45:18.950 ,5,0,0.,12.0,0.,12.0,0.,12.0,0.,12.0
1979-03-01 03:45:30.950 ,6,0,0.,12.0,0.,12.0,0.,12.0,0.,12.0
1979-03-01 03:45:42.950 ,6,0,0.,12.0,0.,12.0,0.,12.0,0.,12.0
1979-03-01 03:45:54.950 ,7,0,0.,12.0,0.,12.0,0.,12.0,0.,12.0
1979-03-01 03:46:06.950 ,7,0,0.,12.0,0.,12.0,0.,12.0,0.,12.0
1979-03-01 03:46:18.950 ,7,0,0.,12.0,0.,12.0,0.,12.0,0.,12.0
1979-03-01 03:46:30.950 ,7,0,0.,12.0,0.,12.0,0.,12.0,0.,12.0
1979-03-01 03:46:42.950 ,6,0,0.,12.0,0.,12.0,0.,12.0,0.,12.0
1979-03-01 03:46:54.950 ,6,0,0.,12.0,0.,12.0,0.,12.0,0.,12.0
1979-03-01 03:47:06.950 ,5,0,0.,12.0,0.,12.0,0.,12.0,0.,12.0
1979-03-01 03:47:18.950 ,5,0,0.,12.0,0.,12.0,0.,12.0,0.,12.0
1979-03-01 03:47:30.950 ,4,0,0.,12.0,0.,12.0,0.,12.0,0.,12.0
1979-03-01 03:47:42.950 ,4,0,0.,12.0,0.,12.0,0.,12.0,0.,12.0
1979-03-01 03:47:54.950 ,3,0,0.,12.0,0.,12.0,0.,12.0,0.,12.0
1979-03-01 03:48:06.950 ,3,0,0.,12.0,0.,12.0,0.,12.0,0.,12.0
1979-03-01 03:48:18.950 ,2,0,0.,12.0,0.,12.0,0.,12.0,0.,12.0
1979-03-01 03:48:30.950 ,2,0,0.,12.0,0.,12.0,0.,12.0,0.,12.0
1979-03-01 03:48:42.950 ,1,0,0.,12.0,0.,12.0,0.,12.0,0.,12.0
1979-03-01 03:48:54.950 ,1,0,0.,12.0,0.,12.0,0.,12.0,0.,12.0
1979-03-01 03:49:06.950 ,0,0,0.,12.0,0.,12.0,0.,12.0,0.,12.0
1979-03-01 03:49:18.950 ,0,0,0.,12.0,0.,12.0,0.,12.0,0.,12.0
1979-03-01 03:49:30.950 ,0,0,0.,12.0,0.,12.0,0.,12.0,0.,12.0
1979-03-01 03:49:42.950 ,0,0,0.,12.0,0.,12.0,0.,12.0,0.,12.0
1979-03-01 03:49:54.950 ,1,0,0.,12.0,0.,12.0,0.,12.0,0.,12.0
1979-03-01 03:50:06.950 ,1,0,0.,12.0,0.,12.0,0.,12.0,0.,12.0
1979-03-01 03:50:18.950 ,2,0,0.,12.0,0.,12.0,0.,12.0,0.,12.0
1979-03-01 03:50:30.950 ,2,0,0.,12.0,0.,12.0,0.,12.0,0.,12.0
1979-03-01 03:50:42.950 ,3,0,0.,12.0,0.,12.0,0.,12.0,0.,12.0
1979-03-01 03:50:54.950 ,3,0,0.,12.0,0.,12.0,0.,12.0,0.,12.0
1979-03-01 03:51:06.950 ,4,0,0.,12.0,0.,12.0,0.,12.0,0.,12.0
1979-03-01 03:51:18.950 ,4,0,0.,12.0,0.,12.0,0.,12.0,0.,12.0
1979-03-01 03:51:30.950 ,5,0,0.,12.0,0.,12.0,0.,12.0,0.,12.0
1979-03-01 03:51:42.950 ,5,0,0.,12.0,0.,12.0,0.,12.0,0.,12.0
1979-03-01 03:51:54.950 ,6,0,0.,12.0,0.,12.0,0.,12.0,0.,12.0
1979-03-01 03:52:06.950 ,6,0,0.,12.0,0.,12.0,0.,12.0,0.,12.0
1979-03-01 03:52:18.950 ,7,0,0.,12.0,0.,12.0,0.,12.0,0.,12.0
1979-03-01 03:52:30.950 ,7,0,0.,12.0,0.,12.0,0.,12.0,0.,12.0
1979-03-01 03:52:42.950 ,7,0,0.,12.0,0.,12.0,0.,12.0,0.,12.0
1979-03-01 03:52:54.950 ,7,0,0.,12.0,0.,12.0,0.,12.0,0.,12.0
1979-03-01 03:53:06.950 ,6,0,0.,12.0,0.,12.0,0.,12.0,0.,12.0
1979-03-01 03:53:18.950 ,6,0,0.,12.0,0.,12.0,0.,12.0,0.,12.0
1979-03-01 03:53:30.950 ,5,0,0.,12.0,0.,12.0,0.,12.0,0.,12.0
1979-03-01 03:53:42.950 ,5,0,0.,12.0,0.,12.0,0.,12.0,0.,12.0
1979-03-01 03:53:54.950 ,4,0,0.,12.0,0.,12.0,0.,12.0,0.,12.0
1979-03-01 03:54:06.950 ,4,0,0.,12.0,0.,12.0,0.,12.0,0.,12.0
1979-03-01 03:54:18.950 ,3,0,0.,12.0,0.,12.0,0.,12.0,0.,12.0
1979-03-01 03:54:30.950 ,3,0,0.,12.0,0.,12.0,0.,12.0,0.,12.0
1979-03-01 03:54:42.950 ,2,0,0.,12.0,0.,12.0,0.,12.0,0.,12.0
1979-03-01 03:54:54.950 ,2,0,0.,12.0,0.,12.0,0.,12.0,0.,12.0
1979-03-01 03:55:06.950 ,1,0,0.,12.0,0.,12.0,0.,12.0,0.,12.0
1979-03-01 03:55:18.950 ,1,0,0.,12.0,0.,12.0,0.,12.0,0.,12.0
1979-03-01 03:55:30.950 ,0,0,0.,12.0,0.,12.0,0.,12.0,0.,12.0
1979-03-01 03:55:42.950 ,0,0,0.,12.0,0.,12.0,0.,12.0,0.,12.0
1979-03-01 03:55:54.950 ,0,0,0.,12.0,0.,12.0,0.,12.0,0.,12.0
1979-03-01 03:56:06.950 ,0,0,0.,12.0,0.,12.0,0.,12.0,0.,12.0
1979-03-01 03:56:18.950 ,0,0,,0,,0,,0,,0
1979-03-01 03:56:30.950 ,0,0,,0,,0,,0,,0
1979-03-01 03:57:34.550 ,0,0,1.,12.0,0.,12.0,0.,12.0,0.,12.0
1979-03-01 03:57:46.550 ,0,0,,0,,0,,0,,0
1979-03-01 03:57:54.950 ,0,0,,0,,0,,0,,0
1979-03-01 03:58:06.950 ,0,0,,0,,0,,0,,0
1979-03-01 03:59:14.750 ,0,0,,0,,0,,0,,0
1979-03-01 03:59:26.750 ,0,0,0.,12.0,0.,12.0,0.,12.0,0.,12.0
1979-03-01 03:59:30.950 ,6,0,0.,12.0,0.,12.0,0.,12.0,0.,12.0
1979-03-01 03:59:42.950 ,6,0,0.,12.0,0.,12.0,0.,12.0,0.,12.0
1979-03-01 03:59:54.950 ,5,0,0.,12.0,0.,12.0,0.,12.0,0.,12.0
1979-03-01 04:00:06.950 ,5,0,0.,12.0,0.,12.0,0.,12.0,0.,12.0
1979-03-01 04:00:18.950 ,4,0,0.,12.0,0.,12.0,0.,12.0,0.,12.0
1979-03-01 04:00:30.950 ,4,0,0.,12.0,0.,12.0,0.,12.0,0.,12.0
1979-03-01 04:00:42.950 ,3,0,0.,12.0,0.,12.0,0.,12.0,0.,12.0
1979-03-01 04:00:54.950 ,3,0,0.,12.0,0.,12.0,0.,12.0,0.,12.0
1979-03-01 04:01:06.950 ,2,0,0.,12.0,0.,12.0,0.,12.0,0.,12.0
1979-03-01 04:01:18.950 ,2,0,0.,12.0,0.,12.0,0.,12.0,0.,12.0
1979-03-01 04:01:30.950 ,1,0,0.,12.0,0.,12.0,0.,12.0,0.,12.0
1979-03-01 04:01:42.950 ,1,0,0.,12.0,0.,12.0,0.,12.0,0.,12.0
1979-03-01 04:01:54.950 ,0,0,0.,12.0,0.,12.0,0.,12.0,0.,12.0
1979-03-01 04:02:06.950 ,0,0,0.,12.0,0.,12.0,0.,12.0,0.,12.0
1979-03-01 04:02:18.950 ,0,0,0.,12.0,0.,12.0,0.,12.0,0.,12.0
1979-03-01 04:02:30.950 ,0,0,0.,12.0,0.,12.0,0.,12.0,0.,12.0
1979-03-01 04:02:42.950 ,1,0,0.,12.0,0.,12.0,0.,12.0,0.,12.0
1979-03-01 04:02:54.950 ,1,0,0.,12.0,0.,12.0,0.,12.0,0.,12.0
1979-03-01 04:03:06.950 ,2,0,0.,12.0,0.,12.0,0.,12.0,0.,12.0
1979-03-01 04:03:18.950 ,2,0,0.,12.0,0.,12.0,0.,12.0,0.,12.0
1979-03-01 04:03:30.950 ,3,0,0.,12.0,0.,12.0,0.,12.0,0.,12.0
1979-03-01 04:03:42.950 ,3,0,0.,12.0,0.,12.0,0.,12.0,0.,12.0
1979-03-01 04:03:54.950 ,4,0,0.,12.0,0.,12.0,0.,12.0,0.,12.0
1979-03-01 04:04:06.950 ,4,0,0.,12.0,0.,12.0,0.,12.0,0.,12.0
1979-03-01 04:04:18.950 ,5,0,0.,12.0,0.,12.0,0.,12.0,0.,12.0
1979-03-01 04:04:30.950 ,5,0,0.,12.0,0.,12.0,0.,12.0,0.,12.0
1979-03-01 04:04:42.950 ,6,0,0.,12.0,0.,12.0,0.,12.0,0.,12.0
1979-03-01 04:04:54.950 ,6,0,0.,12.0,0.,12.0,0.,12.0,0.,12.0
1979-03-01 04:05:06.950 ,7,0,0.,12.0,0.,12.0,0.,12.0,0.,12.0
1979-03-01 04:05:18.950 ,7,0,0.,12.0,0.,12.0,0.,12.0,0.,12.0
1979-03-01 04:05:30.950 ,7,0,0.,12.0,0.,12.0,0.,12.0,0.,12.0
1979-03-01 04:05:42.950 ,7,0,0.,12.0,0.,12.0,0.,12.0,0.,12.0
1979-03-01 04:05:54.950 ,6,0,0.,12.0,0.,12.0,0.,12.0,0.,12.0
1979-03-01 04:06:06.950 ,6,0,0.,12.0,0.,12.0,0.,12.0,0.,12.0
1979-03-01 04:06:18.950 ,5,0,0.,12.0,0.,12.0,0.,12.0,0.,12.0
1979-03-01 04:06:30.950 ,5,0,0.,12.0,0.,12.0,0.,12.0,0.,12.0
1979-03-01 04:06:42.950 ,4,0,0.,12.0,0.,12.0,0.,12.0,0.,12.0
1979-03-01 04:06:54.950 ,4,0,0.,12.0,0.,12.0,0.,12.0,0.,12.0
1979-03-01 04:07:06.950 ,3,0,0.,12.0,0.,12.0,0.,12.0,0.,12.0
1979-03-01 04:07:18.950 ,3,0,0.,12.0,0.,12.0,0.,12.0,0.,12.0
1979-03-01 04:07:30.950 ,2,0,0.,12.0,0.,12.0,0.,12.0,0.,12.0
1979-03-01 04:07:42.950 ,2,0,0.,12.0,0.,12.0,0.,12.0,0.,12.0
1979-03-01 04:07:54.950 ,1,0,0.,12.0,0.,12.0,0.,12.0,0.,12.0
1979-03-01 04:08:06.950 ,1,0,0.,12.0,0.,12.0,0.,12.0,0.,12.0
1979-03-01 04:08:18.950 ,0,0,0.,12.0,0.,12.0,0.,12.0,0.,12.0
1979-03-01 04:08:30.950 ,0,0,0.,12.0,0.,12.0,0.,12.0,0.,12.0
1979-03-01 04:08:42.950 ,0,0,0.,12.0,0.,12.0,0.,12.0,0.,12.0
1979-03-01 04:08:54.950 ,0,0,0.,12.0,0.,12.0,0.,12.0,0.,12.0
1979-03-01 04:09:06.950 ,1,0,0.,12.0,0.,12.0,0.,12.0,0.,12.0
1979-03-01 04:09:18.950 ,1,0,0.,12.0,0.,12.0,0.,12.0,0.,12.0
1979-03-01 04:09:30.950 ,2,0,0.,12.0,0.,12.0,0.,12.0,0.,12.0
1979-03-01 04:09:42.950 ,2,0,0.,12.0,0.,12.0,0.,12.0,0.,12.0
1979-03-01 04:09:54.950 ,3,0,0.,12.0,0.,12.0,0.,12.0,0.,12.0
1979-03-01 04:10:06.950 ,3,0,0.,12.0,0.,12.0,0.,12.0,0.,12.0
1979-03-01 04:10:18.950 ,4,0,0.,12.0,0.,12.0,0.,12.0,0.,12.0
1979-03-01 04:10:30.950 ,4,0,0.,12.0,0.,12.0,0.,12.0,0.,12.0
1979-03-01 04:10:42.950 ,5,0,0.,12.0,0.,12.0,0.,12.0,0.,12.0
1979-03-01 04:10:54.950 ,5,0,0.,12.0,0.,12.0,0.,12.0,0.,12.0
1979-03-01 04:11:06.950 ,6,0,0.,12.0,0.,12.0,0.,12.0,0.,12.0
1979-03-01 04:11:18.950 ,6,0,0.,12.0,0.,12.0,0.,12.0,0.,12.0
1979-03-01 04:11:30.950 ,7,0,0.,12.0,0.,12.0,0.,12.0,0.,12.0
1979-03-01 04:11:42.950 ,7,0,0.,12.0,0.,12.0,0.,12.0,0.,12.0
1979-03-01 04:11:54.950 ,7,0,0.,12.0,0.,12.0,0.,12.0,0.,12.0
1979-03-01 04:12:06.950 ,7,0,0.,12.0,0.,12.0,0.,12.0,0.,12.0
1979-03-01 04:12:18.950 ,6,0,0.,12.0,0.,12.0,0.,12.0,0.,12.0
1979-03-01 04:12:30.950 ,6,0,0.,12.0,0.,12.0,0.,12.0,0.,12.0
1979-03-01 04:12:42.950 ,5,0,0.,12.0,0.,12.0,0.,12.0,0.,12.0
1979-03-01 04:12:54.950 ,5,0,0.,12.0,0.,12.0,0.,12.0,0.,12.0
1979-03-01 04:13:06.950 ,4,0,1.,12.0,0.,12.0,0.,12.0,0.,12.0
1979-03-01 04:13:18.950 ,4,0,0.,12.0,0.,12.0,0.,12.0,0.,12.0
1979-03-01 04:13:30.950 ,3,0,0.,12.0,0.,12.0,0.,12.0,0.,12.0
1979-03-01 04:13:42.950 ,3,0,0.,12.0,0.,12.0,0.,12.0,0.,12.0
1979-03-01 04:13:54.950 ,2,0,0.,12.0,0.,12.0,0.,12.0,0.,12.0
1979-03-01 04:14:06.950 ,2,0,0.,12.0,0.,12.0,0.,12.0,0.,12.0
1979-03-01 04:14:18.950 ,1,0,0.,12.0,0.,12.0,0.,12.0,0.,12.0
1979-03-01 04:14:30.950 ,1,0,0.,12.0,0.,12.0,0.,12.0,0.,12.0
1979-03-01 04:14:42.950 ,0,0,0.,12.0,0.,12.0,0.,12.0,0.,12.0
1979-03-01 04:14:54.950 ,0,0,0.,12.0,0.,12.0,0.,12.0,0.,12.0
1979-03-01 04:15:06.950 ,0,0,0.,12.0,0.,12.0,0.,12.0,0.,12.0
1979-03-01 04:15:18.950 ,0,0,0.,12.0,0.,12.0,0.,12.0,0.,12.0
1979-03-01 04:15:30.950 ,1,0,0.,12.0,0.,12.0,0.,12.0,0.,12.0
1979-03-01 04:15:42.950 ,1,0,0.,12.0,0.,12.0,0.,12.0,0.,12.0
1979-03-01 04:15:54.950 ,2,0,0.,12.0,0.,12.0,0.,12.0,0.,12.0
1979-03-01 04:16:06.950 ,2,0,0.,12.0,0.,12.0,0.,12.0,0.,12.0
1979-03-01 04:16:18.950 ,3,0,0.,12.0,0.,12.0,0.,12.0,0.,12.0
1979-03-01 04:16:30.950 ,3,0,0.,12.0,0.,12.0,0.,12.0,0.,12.0
1979-03-01 04:16:42.950 ,4,0,0.,12.0,0.,12.0,0.,12.0,0.,12.0
1979-03-01 04:16:54.950 ,4,0,0.,12.0,0.,12.0,0.,12.0,0.,12.0
1979-03-01 04:17:06.950 ,5,0,0.,12.0,0.,12.0,0.,12.0,0.,12.0
1979-03-01 04:17:18.950 ,5,0,0.,12.0,0.,12.0,0.,12.0,0.,12.0
1979-03-01 04:17:30.950 ,6,0,0.,12.0,0.,12.0,0.,12.0,0.,12.0
1979-03-01 04:17:42.950 ,6,0,0.,12.0,0.,12.0,0.,12.0,0.,12.0
1979-03-01 04:17:54.950 ,7,0,0.,12.0,0.,12.0,0.,12.0,0.,12.0
1979-03-01 04:18:06.950 ,7,0,0.,12.0,0.,12.0,0.,12.0,0.,12.0
1979-03-01 04:18:18.950 ,7,0,0.,12.0,0.,12.0,0.,12.0,0.,12.0
1979-03-01 04:18:30.950 ,7,0,0.,12.0,0.,12.0,0.,12.0,0.,12.0
1979-03-01 04:18:42.950 ,6,0,0.,12.0,0.,12.0,0.,12.0,0.,12.0
1979-03-01 04:18:54.950 ,6,0,0.,12.0,0.,12.0,0.,12.0,0.,12.0
1979-03-01 04:19:06.950 ,5,0,0.,12.0,0.,12.0,0.,12.0,0.,12.0
1979-03-01 04:19:18.950 ,5,0,0.,12.0,0.,12.0,0.,12.0,0.,12.0
1979-03-01 04:19:30.950 ,4,0,0.,12.0,0.,12.0,0.,12.0,0.,12.0
1979-03-01 04:19:42.950 ,4,0,0.,12.0,0.,12.0,0.,12.0,0.,12.0
1979-03-01 04:19:54.950 ,3,0,0.,12.0,0.,12.0,0.,12.0,0.,12.0